Location: Lac Echo
(45.9375°N, 75.4580°W)
Time: 20:54:33
(UTC-04:00)

Amateur Radio Satellites - All Passes

Search period start: 15 September 2014 20:24
Search period end: 16 September 2014 20:24
Location: Lac Echo, 45.9375°N, 75.4580°W

Satellite Date Start Highest point End Downlink Frequencies (MHz)
Time Altitude Azimuth
HO-68 15 Sep 20:27:40 20:34:34 55° 66° (ENE) 20:41:29 435.675 MHz FM
AO-40 15 Sep 20:40:55 00:46:57 31° 189° (S) 05:47:35 Beacon 2401.320
Saudisat 1A 15 Sep 20:41:05 20:44:21 20° 325° (NW) 20:47:38 436.775 MHz
Sapphire 15 Sep 20:44:20 20:48:12 19° 36° (NE) 20:52:02 437.095 MHz 1200 baud AX-25 AFSK
STRAND 1 15 Sep 20:52:49 20:57:32 38° 293° (WNW) 21:02:14 ?
PCSat 15 Sep 21:11:32 21:16:13 28° 43° (NE) 21:20:51 145.825 MHz
FUNcube-1 15 Sep 21:22:52 21:26:01 20° 63° (ENE) 21:29:13 145.950 - 145.970 MHz USB
KITSAT 1 15 Sep 21:27:09 21:35:14 76° 306° (NW) 21:43:23 435.175 FM
Oscar 11 15 Sep 21:43:33 21:47:53 70° 74° (ENE) 21:52:16 145.825 FM, Beacon 2401.500 USB
UKube-1 15 Sep 21:55:57 22:00:14 60° 258° (WSW) 22:04:32 145.840 MHz, 145.915 MHz
HO-68 15 Sep 22:16:17 22:22:34 33° 265° (W) 22:28:53 435.675 MHz FM
Sapphire 15 Sep 22:27:01 22:32:29 82° 57° (ENE) 22:37:55 437.095 MHz 1200 baud AX-25 AFSK
PCSat 15 Sep 22:54:39 23:00:00 59° 243° (WSW) 23:05:18 145.825 MHz
FUNcube-1 15 Sep 22:57:49 23:02:03 49° 261° (W) 23:06:25 145.950 - 145.970 MHz USB
Oscar 11 15 Sep 23:22:39 23:24:34 13° 271° (W) 23:26:29 145.825 FM, Beacon 2401.500 USB
KITSAT 1 15 Sep 23:25:22 23:32:02 27° 331° (NNW) 23:38:44 435.175 FM
SO-50 15 Sep 23:36:37 23:40:50 42° 119° (ESE) 23:45:11 436.795 FM
Sapphire 16 Sep 00:11:58 00:15:12 16° 256° (WSW) 00:18:26 437.095 MHz 1200 baud AX-25 AFSK
SO-50 16 Sep 01:17:30 01:21:32 31° 319° (NW) 01:25:40 436.795 FM
KITSAT 1 16 Sep 01:25:33 01:30:42 18° 1° (N) 01:35:51 435.175 FM
UOSAT-12 16 Sep 01:37:26 01:41:58 57° 121° (ESE) 01:46:36 437.025 FM, 437.400 FM
Saudisat 1A 16 Sep 01:45:24 01:48:53 22° 37° (NE) 01:52:22 436.775 MHz
Oscar 19 16 Sep 01:53:35 01:58:00 28° 94° (E) 02:02:23 437.125 CW, 437.150 USB
AO-27 16 Sep 02:02:05 02:04:59 15° 89° (E) 02:07:53 436.795 MHz FM
JAS-1B 16 Sep 02:25:33 02:30:27 27° 93° (E) 02:35:10 435.800 - 435.900 CW/SSB
Oscar 16 16 Sep 02:31:12 02:36:22 61° 101° (ESE) 02:41:28 437.025 USB, Beacon 2401.1428
Gurwin Techsat 1B 16 Sep 02:31:35 02:34:10 14° 87° (E) 02:36:43 435.225 FM
OPAL 16 Sep 02:45:16 02:45:54 10° 49° (NE) 02:46:33 ?
SO-50 16 Sep 03:03:11 03:03:37 10° 342° (NNW) 03:04:03 436.795 FM
ITAMSAT 1 16 Sep 03:06:00 03:11:07 54° 100° (E) 03:16:12 435.822 SSB
TMSAT-1 16 Sep 03:10:09 03:14:17 23° 92° (E) 03:18:23 436.925 FM
Uribyol 2 16 Sep 03:11:15 03:16:27 64° 102° (ESE) 03:21:37 436.500 FM
AO-Echo 16 Sep 03:17:26 03:22:14 80° 104° (ESE) 03:27:09 ?
UOSAT-12 16 Sep 03:18:30 03:22:27 26° 321° (NW) 03:26:27 437.025 FM, 437.400 FM
KITSAT 1 16 Sep 03:22:30 03:29:18 28° 30° (NNE) 03:36:03 435.175 FM
Saudisat 1A 16 Sep 03:24:29 03:28:52 65° 237° (WSW) 03:33:14 436.775 MHz
RS-15 16 Sep 03:31:57 03:38:42 19° 98° (E) 03:45:22 29.354 - 29.394 USB, Beacon 29.352 USB
Oscar 19 16 Sep 03:32:37 03:37:29 42° 292° (WNW) 03:42:18 437.125 CW, 437.150 USB
AO-27 16 Sep 03:39:53 03:45:06 78° 287° (WNW) 03:50:19 436.795 MHz FM
Gurwin Techsat 1B 16 Sep 04:09:29 04:14:50 86° 286° (WNW) 04:20:09 435.225 FM
Oscar 16 16 Sep 04:11:29 04:15:17 21° 300° (WNW) 04:19:03 437.025 USB, Beacon 2401.1428
JAS-1B 16 Sep 04:15:50 04:21:30 45° 294° (WNW) 04:26:50 435.800 - 435.900 CW/SSB
OPAL 16 Sep 04:18:39 04:23:43 58° 68° (ENE) 04:28:51 ?
Uosat F 16 Sep 04:24:48 04:28:20 19° 91° (E) 04:31:51 435.120 FM
AO-7 16 Sep 04:42:52 04:50:25 37° 97° (E) 04:57:55 29.400 - 29.500 MHz
ITAMSAT 1 16 Sep 04:46:12 04:50:16 24° 299° (WNW) 04:54:19 435.822 SSB
TMSAT-1 16 Sep 04:49:22 04:54:31 53° 290° (WNW) 04:59:40 436.925 FM
Uribyol 2 16 Sep 04:51:42 04:55:27 21° 300° (WNW) 04:59:13 436.500 FM
ISS 16 Sep 04:53:51 04:57:05 51° 146° (SE) 05:00:21 145.800 FM
AO-Echo 16 Sep 04:57:52 05:00:26 15° 301° (WNW) 05:03:02 ?
KITSAT 1 16 Sep 05:17:50 05:25:59 81° 55° (NE) 05:34:04 435.175 FM
AO-27 16 Sep 05:21:32 05:23:46 13° 305° (NW) 05:26:01 436.795 MHz FM
RS-15 16 Sep 05:38:04 05:49:03 75° 120° (ESE) 05:59:56 29.354 - 29.394 USB, Beacon 29.352 USB
Gurwin Techsat 1B 16 Sep 05:51:14 05:54:01 15° 304° (NW) 05:56:47 435.225 FM
JAS-2 16 Sep 05:52:38 05:57:12 23° 93° (E) 06:02:08 435.800 - 435.900 CW/SSB, 435.910 FM
OPAL 16 Sep 05:59:09 06:02:58 21° 266° (W) 06:06:50 ?
Uosat F 16 Sep 06:02:34 06:07:30 58° 289° (WNW) 06:12:25 435.120 FM
SO-50 16 Sep 06:25:49 06:29:06 18° 32° (NNE) 06:32:25 436.795 FM
ISS 16 Sep 06:30:44 06:33:54 39° 345° (NNW) 06:37:05 145.800 FM
STRAND 1 16 Sep 06:32:01 06:36:58 56° 71° (ENE) 06:41:58 ?
Hamsat 16 Sep 06:33:35 06:37:38 39° 97° (E) 06:41:36 145.90 MHz
AO-7 16 Sep 06:35:29 06:43:30 56° 297° (WNW) 06:51:30 29.400 - 29.500 MHz
KITSAT 1 16 Sep 07:14:18 07:20:31 25° 255° (WSW) 07:26:43 435.175 FM
JAS-2 16 Sep 07:36:57 07:42:36 62° 289° (WNW) 07:48:57 435.800 - 435.900 CW/SSB, 435.910 FM
SO-67 16 Sep 07:37:36 07:40:34 26° 95° (E) 07:43:31 435.3500 MHz FM
RS-15 16 Sep 07:52:04 08:02:20 43° 327° (NNW) 08:12:40 29.354 - 29.394 USB, Beacon 29.352 USB
SO-50 16 Sep 08:05:37 08:10:26 78° 53° (NE) 08:15:18 436.795 FM
ISS 16 Sep 08:08:10 08:11:10 30° 5° (N) 08:14:09 145.800 FM
Hamsat 16 Sep 08:10:04 08:13:22 22° 295° (WNW) 08:16:37 145.90 MHz
STRAND 1 16 Sep 08:12:50 08:16:31 20° 268° (W) 08:20:14 ?
MaSat-1 16 Sep 08:21:28 08:23:49 13° 101° (E) 08:26:09 437.345 MHz
UOSAT-12 16 Sep 08:25:17 08:28:50 20° 34° (NE) 08:32:21 437.025 FM, 437.400 FM
AO-7 16 Sep 08:30:05 08:34:34 16° 320° (NW) 08:39:02 29.400 - 29.500 MHz
SO-67 16 Sep 09:10:50 09:13:29 21° 292° (WNW) 09:16:06 435.3500 MHz FM
JAS-2 16 Sep 09:25:11 09:26:47 11° 307° (NW) 09:28:25 435.800 - 435.900 CW/SSB, 435.910 FM
Oscar 11 16 Sep 09:31:26 09:32:27 11° 87° (E) 09:33:27 145.825 FM, Beacon 2401.500 USB
HO-68 16 Sep 09:40:02 09:46:51 44° 99° (E) 09:53:39 435.675 MHz FM
UKube-1 16 Sep 09:42:30 09:45:38 19° 93° (E) 09:48:46 145.840 MHz, 145.915 MHz
ISS 16 Sep 09:44:57 09:48:16 66° 25° (NNE) 09:51:35 145.800 FM
SO-50 16 Sep 09:47:35 09:50:26 16° 250° (WSW) 09:53:18 436.795 FM
MaSat-1 16 Sep 09:54:53 09:59:57 89° 118° (ESE) 10:04:57 437.345 MHz
UOSAT-12 16 Sep 10:04:51 10:09:37 85° 235° (SW) 10:14:17 437.025 FM, 437.400 FM
RS-15 16 Sep 10:09:19 10:18:26 29° 1° (N) 10:27:40 29.354 - 29.394 USB, Beacon 29.352 USB
FUNcube-1 16 Sep 10:44:37 10:48:38 28° 94° (E) 10:52:37 145.950 - 145.970 MHz USB
Oscar 11 16 Sep 11:04:50 11:09:13 81° 285° (WNW) 11:13:33 145.825 FM, Beacon 2401.500 USB
UKube-1 16 Sep 11:17:54 11:22:04 45° 290° (WNW) 11:26:13 145.840 MHz, 145.915 MHz
ISS 16 Sep 11:22:06 11:24:45 22° 222° (SW) 11:27:23 145.800 FM
HO-68 16 Sep 11:27:54 11:34:31 42° 298° (WNW) 11:41:08 435.675 MHz FM
MaSat-1 16 Sep 11:33:58 11:37:25 18° 316° (NW) 11:40:47 437.345 MHz
UOSAT-12 16 Sep 11:47:20 11:48:59 12° 253° (WSW) 11:50:38 437.025 FM, 437.400 FM
PCSat 16 Sep 11:59:20 12:01:16 12° 102° (ESE) 12:03:11 145.825 MHz
Oscar 16 16 Sep 12:13:40 12:17:02 18° 58° (ENE) 12:20:25 437.025 USB, Beacon 2401.1428
FUNcube-1 16 Sep 12:20:52 12:25:03 34° 292° (WNW) 12:29:12 145.950 - 145.970 MHz USB
RS-15 16 Sep 12:24:00 12:34:27 45° 34° (NE) 12:45:11 29.354 - 29.394 USB, Beacon 29.352 USB
Oscar 11 16 Sep 12:44:17 12:44:38 10° 303° (WNW) 12:44:59 145.825 FM, Beacon 2401.500 USB
ITAMSAT 1 16 Sep 12:49:44 12:52:51 16° 57° (ENE) 12:55:59 435.822 SSB
Uribyol 2 16 Sep 12:54:25 12:57:56 19° 59° (ENE) 13:01:27 436.500 FM
AO-Echo 16 Sep 12:56:21 12:59:30 18° 61° (ENE) 13:02:39 ?
Sapphire 16 Sep 13:11:17 13:16:23 45° 114° (ESE) 13:21:33 437.095 MHz 1200 baud AX-25 AFSK
JAS-1B 16 Sep 13:11:19 13:19:05 40° 64° (ENE) 13:25:43 435.800 - 435.900 CW/SSB
Oscar 19 16 Sep 13:12:38 13:17:38 51° 70° (ENE) 13:22:41 437.125 CW, 437.150 USB
AO-27 16 Sep 13:22:06 13:26:33 30° 64° (ENE) 13:31:00 436.795 MHz FM
PCSat 16 Sep 13:38:21 13:43:46 79° 120° (ESE) 13:49:13 145.825 MHz
Oscar 16 16 Sep 13:50:37 13:55:48 75° 257° (WSW) 14:01:02 437.025 USB, Beacon 2401.1428
Gurwin Techsat 1B 16 Sep 13:54:21 13:58:49 28° 64° (ENE) 14:03:17 435.225 FM
AO-7 16 Sep 13:56:12 14:01:09 18° 42° (NE) 14:06:05 29.400 - 29.500 MHz
ITAMSAT 1 16 Sep 14:26:32 14:31:42 81° 256° (WSW) 14:36:55 435.822 SSB
Uribyol 2 16 Sep 14:31:44 14:36:52 69° 257° (WSW) 14:42:04 436.500 FM
TMSAT-1 16 Sep 14:33:06 14:38:05 44° 68° (ENE) 14:43:05 436.925 FM
AO-Echo 16 Sep 14:33:09 14:37:52 61° 259° (WSW) 14:42:32 ?
RS-15 16 Sep 14:36:38 14:47:39 72° 240° (WSW) 14:59:05 29.354 - 29.394 USB, Beacon 29.352 USB
Oscar 19 16 Sep 14:53:12 14:57:16 23° 268° (W) 15:01:21 437.125 CW, 437.150 USB
Sapphire 16 Sep 14:55:04 14:59:58 34° 314° (NW) 15:04:54 437.095 MHz 1200 baud AX-25 AFSK
JAS-1B 16 Sep 15:01:00 15:09:32 52° 260° (W) 15:16:46 435.800 - 435.900 CW/SSB
AO-27 16 Sep 15:01:05 15:05:55 40° 262° (W) 15:10:48 436.795 MHz FM
PCSat 16 Sep 15:23:34 15:27:49 23° 321° (NW) 15:32:05 145.825 MHz
Gurwin Techsat 1B 16 Sep 15:33:32 15:38:35 44° 262° (W) 15:43:40 435.225 FM
Uosat F 16 Sep 15:40:10 15:44:39 34° 66° (ENE) 15:49:09 435.120 FM
AO-7 16 Sep 15:44:13 15:52:21 62° 64° (ENE) 16:00:30 29.400 - 29.500 MHz
ITAMSAT 1 16 Sep 16:10:58 16:12:02 11° 274° (W) 16:13:06 435.822 SSB
JAS-2 16 Sep 16:11:53 16:13:23 11° 54° (NE) 16:14:54 435.800 - 435.900 CW/SSB, 435.910 FM
TMSAT-1 16 Sep 16:13:43 16:18:10 27° 266° (W) 16:22:39 436.925 FM
Oscar 10/S400 16 Sep 16:18:15 16:33:29 28° 146° (SE) 16:55:00 145.825 - 145.975 CW/USB, Beacon 145.810 USB
OPAL 16 Sep 16:28:36 16:30:24 12° 89° (E) 16:32:10 ?
Sapphire 16 Sep 16:43:52 16:45:08 11° 338° (NNW) 16:46:25 437.095 MHz 1200 baud AX-25 AFSK
RS-15 16 Sep 16:51:20 16:57:59 18° 262° (W) 17:04:49 29.354 - 29.394 USB, Beacon 29.352 USB
Uosat F 16 Sep 17:18:58 17:23:26 32° 264° (W) 17:27:55 435.120 FM
Hamsat 16 Sep 17:29:04 17:33:07 39° 70° (ENE) 17:37:12 145.90 MHz
Saudisat 1A 16 Sep 17:34:27 17:37:25 18° 112° (ESE) 17:40:24 436.775 MHz
AO-7 16 Sep 17:38:17 17:45:35 33° 264° (W) 17:52:56 29.400 - 29.500 MHz
JAS-2 16 Sep 17:52:20 17:57:38 75° 73° (ENE) 18:02:49 435.800 - 435.900 CW/SSB, 435.910 FM
OPAL 16 Sep 18:04:49 18:10:03 85° 106° (ESE) 18:15:11 ?
MaSat-1 16 Sep 18:09:52 18:13:42 35° 52° (NE) 18:17:01 437.345 MHz
SO-67 16 Sep 18:13:57 18:15:54 15° 65° (ENE) 18:17:51 435.3500 MHz FM
HO-68 16 Sep 18:30:49 18:31:53 10° 41° (NE) 18:32:57 435.675 MHz FM
STRAND 1 16 Sep 18:41:24 18:44:26 16° 89° (E) 18:47:28 ?
Hamsat 16 Sep 19:05:49 19:09:13 22° 267° (W) 19:12:38 145.90 MHz
Saudisat 1A 16 Sep 19:12:13 19:16:34 60° 310° (NW) 19:20:58 436.775 MHz
JAS-2 16 Sep 19:40:41 19:43:24 14° 271° (W) 19:46:06 435.800 - 435.900 CW/SSB, 435.910 FM
OPAL 16 Sep 19:45:07 19:48:14 16° 306° (NW) 19:51:20 ?
SO-67 16 Sep 19:45:20 19:48:36 40° 262° (W) 19:51:54 435.3500 MHz FM
MaSat-1 16 Sep 19:47:14 19:50:11 21° 256° (WSW) 19:52:49 437.345 MHz
KITSAT 1 16 Sep 19:49:00 19:56:20 40° 110° (ESE) 20:03:41 435.175 FM
HO-68 16 Sep 20:11:10 20:17:47 44° 62° (ENE) 20:24:27 435.675 MHz FM
Sapphire 16 Sep 20:14:08 20:17:27 16° 32° (NNE) 20:20:47 437.095 MHz 1200 baud AX-25 AFSK
